SCP
0 0 0 0 0 0 0 0 0 0 0 0 0 1 1 1 1 1 1 1 2 2 2 2 2 2 1 1 1 1 1 1 1 1 1 1 1 1 1 1 1 1 1 0
0 0 0 0 0 0 0 0 0 0 0 0 1 1 1 1 1 1 1 1 2 2 2 2 2 2 1 1 1 1 1 1 1 1 1 1 1 1 1 1 1 0 0 0
0 0 0 0 0 0 0 0 0 0 0 1 1 1 1 1 1 1 1 1 2 2 2 2 2 2 2 1 1 1 1 1 1 1 1 1 1 1 1 0 0 0 0 0
0 0 0 0 0 0 0 0 0 0 1 1 1 1 2 2 2 2 2 2 2 2 2 2 2 2 2 1 1 1 1 1 1 1 1 1 1 1 1 0 0 0 0 0
0 0 0 0 0 0 0 0 0 1 1 1 1 1 1 2 2 2 2 2 2 2 2 2 2 2 2 1 1 1 1 1 1 1 1 1 1 1 1 0 0 0 0 0
0 0 0 0 0 0 0 0 1 1 1 1 1 1 1 2 2 2 2 2 2 2 2 2 2 2 2 1 1 1 1 1 1 1 1 1 1 1 1 0 0 0 0 0
0 0 0 0 0 0 1 1 1 1 1 1 1 2 2 2 2 2 2 2 3 3 3 3 2 2 2 2 1 1 1 1 1 1 1 1 1 1 1 0 0 0 0 0
0 0 1 1 1 1 1 1 1 1 1 2 2 2 2 2 2 2 2 2 2 3 3 3 2 2 2 2 1 1 1 1 1 1 1 1 1 1 1 0 0 0 0 0
1 1 1 1 1 1 2 2 2 1 1 2 2 2 2 2 2 2 2 2 2 3 2 2 2 2 2 1 1 1 1 1 1 1 1 1 1 1 0 0 0 0 0 0
1 1 2 1 2 2 2 2 1 1 1 1 2 2 2 2 2 2 2 2 2 2 2 2 2 2 1 1 1 1 1 1 1 1 1 0 0 0 0 0 0 0 0 0
2 2 1 1 1 1 2 2 1 1 1 1 1 2 2 2 2 2 2 2 2 2 2 2 1 1 1 1 1 1 1 1 0 0 0 0 0 0 0 0 0 0 0 0
2 1 1 1 1 1 2 1 1 1 1 1 1 1 1 1 1 1 1 1 1 1 1 1 1 1 1 1 1 1 0 0 0 0 0 0 0 0 0 0 0 0 0 0
1 1 1 1 1 1 1 1 1 1 1 1 1 1 1 1 1 1 1 1 1 1 1 1 1 1 1 1 0 0 0 0 0 0 0 0 0 0 0 0 0 0 0 0
1 1 1 1 1 1 1 1 1 1 1 1 1 1 1 1 1 1 1 1 1 1 1 1 1 1 1 0 0 0 0 0 0 0 0 0 0 0 0 0 0 0 0 0
1 1 1 1 1 1 1 1 1 1 1 1 0 0 1 1 1 1 1 1 1 1 1 1 1 0 0 0 0 0 0 0 0 0 0 0 0 0 0 0 0 0 0 0
1 1 1 1 1 0 0 0 0 0 0 0 0 0 1 1 1 1 1 1 1 1 1 0 0 0 0 0 0 0 0 0 0 0 0 0 0 0 0 0 0 0 0 0
0 0 0 0 0 0 0 0 0 0 0 0 0 1 1 1 1 1 1 1 1 1 0 0 0 0 0 0 0 0 0 0 0 0 0 0 0 0 0 0 0 0 0 0
0 0 0 0 0 0 0 0 0 0 0 0 1 1 1 1 1 1 1 1 1 0 0 0 0 0 0 0 0 0 0 0 0 0 0 0 0 0 0 0 0 0 0 0
0 0 0 0 0 0 0 0 0 0 0 0 0 0 0 0 1 1 1 0 0 0 0 0 0 0 0 0 0 0 0 0 0 0 0 0 0 0 0 0 0 0 0 0
0 0 0 0 0 0 0 0 0 0 0 0 0 0 0 0 0 0 0 0 0 0 0 0 0 0 0 0 0 0 0 0 0 0 0 0 0 0 0 0 0 0 0 0
0 0 0 0 0 0 0 0 0 0 0 0 0 0 0 0 0 0 0 0 0 0 0 0 0 0 0 0 0 0 0 0 0 0 0 0 0 0 0 0 0 0 0 0
0 0 0 0 0 0 0 0 0 0 0 0 0 0 0 0 0 0 0 0 0 0 0 0 0 0 0 0 0 0 0 0 0 0 0 0 0 0 0 0 0 0 0 0
0 0 0 0 0 0 0 0 0 0 0 0 0 0 0 0 0 0 0 0 0 0 0 0 0 0 0 0 0 0 0 0 0 0 0 0 0 0 0 0 0 0 0 0
0 0 0 0 0 0 0 0 0 0 0 0 0 0 0 0 0 0 0 0 0 0 0 0 0 0 0 0 0 0 0 0 0 0 0 0 0 0 0 0 0 0 0 0
0 0 0 0 0 0 0 0 0 0 0 0 0 0 0 0 0 0 0 0 0 0 0 0 0 0 0 0 0 0 0 0 0 0 0 0 0 0 0 0 0 0 0 0
0 0 0 0 0 0 0 0 0 0 0 0 0 0 0 0 0 0 0 0 0 0 0 0 0 0 0 0 0 0 0 0 0 0 0 0 0 0 0 0 0 0 0 0
0 0 0 0 0 0 0 0 0 0 0 0 0 0 0 0 0 0 0 0 0 0 0 0 0 0 0 0 0 0 0 0 0 0 0 0 0 0 0 0 0 0 0 0
Wind_Speed
14 13 13 15 16 17 16 14 12 10 9 9 8 7 8 8 9 9 10 9 9 9 8 7 7 6 5 5 5 5 4 4 4 3 3 4 4 4 4 4 4 4 5 5
14 15 13 13 15 16 16 15 14 11 6 5 7 7 7 7 8 9 9 10 10 10 9 8 7 6 6 5 5 5 5 5 4 4 4 5 5 5 4 5 5 5 5 6
12 15 15 15 14 14 13 14 12 10 6 4 6 7 7 6 7 7 8 9 10 10 9 8 7 6 6 6 6 5 5 5 4 5 5 5 5 5 5 5 5 6 6 7
11 12 16 10 10 11 12 11 8 6 4 4 6 8 7 6 6 7 8 9 9 9 9 9 8 7 7 7 6 6 6 5 5 5 6 6 6 6 6 5 5 6 6 7
10 13 13 10 10 10 9 6 5 5 4 5 8 8 7 6 6 6 7 8 8 9 9 8 8 8 7 7 7 6 6 5 5 5 6 6 6 6 6 6 6 6 6 7
10 11 11 8 8 6 8 6 4 4 5 6 7 5 5 7 7 8 7 6 7 8 9 8 7 8 7 7 6 6 6 6 6 5 6 6 5 5 6 6 6 7 8 7
12 10 6 5 4 6 8 3 3 3 4 5 4 5 7 8 8 8 8 7 8 8 8 7 7 7 7 7 6 6 7 7 6 6 6 6 5 5 6 6 7 7 7 7
12 10 5 4 1 2 4 6 6 6 7 8 10 10 10 9 8 8 8 8 8 8 7 6 7 7 7 7 7 7 7 7 6 6 5 6 6 5 5 6 6 6 6 6
4 2 5 7 8 7 6 7 7 7 8 9 10 10 9 9 7 7 7 7 8 9 8 7 6 7 8 7 7 7 7 7 6 6 5 5 4 4 4 3 4 4 4 5
3 5 6 7 8 7 6 7 6 6 7 9 9 10 9 8 7 7 7 8 8 8 8 7 7 8 8 7 7 7 7 7 6 6 6 6 4 4 4 3 3 3 4 5
5 5 5 6 5 6 6 7 7 6 6 7 9 9 9 7 7 6 6 6 7 7 8 8 8 8 8 7 7 8 7 6 6 7 7 7 8 8 7 7 5 3 4 4
2 3 4 5 5 5 6 5 5 5 6 7 8 8 8 7 6 6 6 6 7 8 8 8 8 8 7 6 7 7 6 6 5 6 6 7 8 8 14 11 13 14 11 9
3 4 5 6 5 6 5 4 5 5 6 7 7 8 8 7 7 6 7 7 7 8 8 8 8 7 6 6 6 5 5 5 5 5 6 6 7 7 7 8 13 14 13 12
3 3 4 4 3 4 5 5 5 5 6 6 7 7 8 7 7 7 7 7 8 8 8 8 8 7 7 6 6 5 5 4 5 5 5 5 6 6 6 7 6 6 6 7
0 0 3 4 3 4 4 5 5 5 6 6 7 7 7 7 7 6 7 8 8 8 8 8 7 7 6 6 6 5 4 4 3 4 4 5 5 5 6 7 7 7 6 3
0 2 2 3 3 3 4 5 5 5 6 6 6 7 7 7 7 7 7 8 8 8 7 7 7 6 6 7 6 4 4 5 4 4 4 4 5 5 6 6 6 6 5 5
1 2 2 2 3 3 3 3 4 5 6 6 7 8 8 8 8 7 7 7 7 8 8 7 7 6 6 6 5 5 5 5 4 3 3 4 4 5 5 5 6 5 5 4
2 2 2 3 3 3 4 4 4 5 6 7 8 8 8 8 8 8 8 9 9 8 8 7 6 6 5 5 4 4 5 5 4 4 4 5 4 5 5 6 6 7 5 4
1 1 2 2 3 4 4 4 5 6 7 7 7 7 7 7 8 8 8 8 9 8 6 7 7 6 6 4 4 3 4 5 5 5 5 4 3 4 5 5 5 5 5 4
1 2 2 3 3 4 5 5 6 6 6 7 7 7 7 7 8 8 8 7 5 6 7 7 7 6 6 5 3 3 5 6 6 6 5 4 4 4 4 4 5 5 4 4
2 2 3 3 4 5 6 7 7 7 7 7 7 8 8 7 7 7 7 7 6 7 7 6 4 4 4 4 3 3 4 5 5 5 5 4 4 4 4 4 4 4 4 4
1 2 4 4 5 5 6 7 7 8 8 7 8 8 8 8 8 7 6 6 6 6 5 5 4 5 4 2 3 3 4 5 5 5 4 4 4 4 4 4 4 3 4 3
2 3 4 5 6 7 7 7 7 7 8 7 7 7 7 6 6 7 7 5 6 6 4 4 6 6 3 1 2 4 5 4 4 4 5 4 4 4 4 4 3 3 3 3
4 4 4 5 6 7 7 7 7 6 8 7 6 6 7 6 6 6 7 8 7 6 5 6 7 4 1 2 3 4 4 4 4 4 5 5 4 4 4 3 3 3 3 3
5 5 5 6 6 5 6 7 7 7 8 6 6 6 5 5 7 7 8 9 8 7 7 6 5 2 1 2 4 4 4 3 3 3 4 4 4 5 4 3 2 3 2 2
5 4 4 4 4 4 5 5 5 6 6 6 5 5 5 6 8 8 7 9 9 7 6 5 4 3 3 3 4 4 4 5 4 4 4 3 4 4 3 3 2 1 2 2
5 4 4 4 4 4 4 5 5 6 6 6 6 6 7 7 7 8 8 8 7 6 6 5 4 3 3 4 4 4 4 3 3 4 3 3 3 3 3 3 2 2 2 2
Wind_Direction
253 254 232 216 218 225 232 236 238 238 220 184 182 171 149 143 139 139 139 141 136 131 127 126 122 124 127 124 119 114 117 113 106 99 90 92 87 79 72 68 73 67 63 56
244 253 251 230 220 221 227 233 240 245 238 180 154 136 133 143 148 147 148 146 140 135 135 134 133 136 129 122 117 113 110 102 97 95 90 90 90 86 79 74 70 71 65 61
238 239 246 237 222 221 225 228 236 239 229 172 135 133 133 136 144 146 143 145 142 140 139 138 138 133 128 123 118 114 106 100 98 95 93 87 90 90 83 75 69 73 69 68
246 242 239 240 233 230 228 224 219 222 211 159 137 124 122 125 130 139 141 141 141 142 141 140 138 132 126 124 120 116 111 103 97 96 95 90 86 85 82 79 76 75 73 71
237 240 235 238 231 227 223 224 197 191 177 140 127 125 125 120 120 118 126 127 134 138 135 132 131 127 126 121 117 115 110 104 100 100 96 90 87 87 84 83 78 74 74 72
238 241 234 226 230 216 214 205 172 162 152 149 148 161 135 116 111 110 106 111 123 126 126 124 126 128 125 121 119 114 109 103 98 98 99 97 93 93 94 92 89 85 76 70
242 242 251 258 231 217 217 168 108 121 120 127 111 86 106 107 103 108 111 118 118 119 121 119 119 120 121 118 114 110 108 105 98 95 97 100 97 96 99 98 97 94 91 80
233 237 234 348 170 124 79 72 85 91 96 100 100 100 106 105 106 112 116 121 121 115 113 112 117 122 120 114 110 108 107 105 102 102 104 104 103 106 108 112 111 108 105 97
219 173 90 64 77 75 79 79 84 90 98 106 114 115 113 112 114 114 117 119 119 119 114 111 112 117 118 113 113 112 107 103 101 96 87 95 104 111 121 127 122 119 114 101
141 126 102 89 84 75 70 80 86 95 106 114 115 118 119 120 119 117 116 120 121 122 119 115 111 111 112 113 113 113 110 106 104 99 89 73 70 72 70 58 82 99 101 105
148 129 113 82 72 79 82 91 100 100 103 110 116 123 125 122 121 119 116 117 120 121 121 119 116 114 114 118 120 119 117 115 110 101 94 78 63 45 55 48 38 67 81 87
118 113 115 104 79 77 82 87 99 108 108 113 121 124 125 125 123 125 125 122 119 118 119 121 121 119 121 125 126 128 132 134 125 120 115 111 104 82 53 58 56 60 70 85
56 66 86 97 80 76 82 85 90 103 110 115 121 126 129 129 128 128 129 131 130 127 124 123 125 124 123 126 128 132 135 136 131 131 133 131 128 122 109 73 60 58 64 77
46 79 93 93 91 92 98 94 95 101 107 114 120 123 126 129 130 131 131 130 127 125 126 126 126 126 126 127 129 132 130 125 132 136 138 135 134 135 135 129 114 90 69 75
352 82 106 108 108 110 118 122 122 123 123 124 123 126 131 133 131 126 121 124 124 126 128 128 126 125 129 133 135 132 127 128 127 130 134 135 136 134 128 125 123 124 125 111
58 81 108 129 130 134 141 145 141 136 136 131 133 132 128 127 123 120 121 127 130 129 128 127 123 126 134 133 129 120 111 118 130 137 138 144 139 132 127 126 124 124 124 126
177 180 174 154 154 156 153 148 143 141 139 136 132 127 127 127 126 125 124 123 122 120 122 122 124 128 134 137 138 135 132 131 139 149 143 129 119 118 117 118 118 112 109 107
232 232 215 191 183 158 146 142 142 140 134 127 129 131 137 139 137 133 129 124 116 112 114 123 127 128 129 131 128 127 137 143 147 127 106 97 102 113 116 116 117 117 121 125
214 190 168 159 154 143 136 135 135 133 134 134 136 137 138 136 134 132 129 128 127 123 125 128 128 131 128 126 129 136 137 129 115 102 101 110 123 116 115 118 119 123 128 126
156 155 153 142 133 131 131 136 136 136 136 137 136 134 134 136 136 135 132 129 131 130 132 135 140 136 136 137 136 140 136 132 126 124 128 132 120 114 114 118 120 120 118 117
130 141 143 136 133 139 141 139 137 134 134 138 138 138 136 136 138 137 134 124 116 122 130 133 137 130 130 132 146 147 134 129 128 131 134 132 124 124 124 124 123 123 122 121
102 137 134 133 140 139 133 132 132 134 135 136 135 133 133 136 136 126 112 113 119 118 129 133 122 103 93 125 157 137 127 125 125 128 126 122 122 121 117 116 117 118 115 113
104 114 120 124 122 122 121 126 129 131 131 130 130 132 135 133 134 128 118 113 121 120 121 108 98 94 74 147 135 122 122 124 127 131 127 120 118 119 118 118 112 111 111 114
108 112 116 118 117 119 121 123 123 123 121 117 118 122 126 124 114 111 115 116 114 120 104 99 102 97 102 133 117 117 117 117 123 126 126 127 121 113 109 115 120 119 120 125
117 124 129 131 130 129 129 130 128 124 123 121 122 122 123 121 121 120 121 122 124 120 118 118 110 92 100 100 101 101 98 91 95 99 99 110 120 120 120 118 113 118 119 121
118 127 129 129 125 130 140 142 136 133 130 128 127 125 120 116 120 125 128 132 131 130 132 136 139 137 120 107 107 108 112 116 111 109 102 99 103 107 107 108 118 123 119 117
115 118 115 114 124 137 135 133 130 127 129 132 129 127 125 126 128 129 130 132 134 134 132 135 137 134 126 118 113 112 113 112 109 108 114 121 121 122 126 139 142 123 115 112